Pasco, WA

6:59 AM PDT on September 26, 2017 (GMT -0700)
Tri-Cities

Weather History for KPSC - February, 2013

Change the Weather History Date:

Tuesday, February 19, 2013

  Actual Average Record
Temperature  
Mean Temperature 40 °F 39 °F  
Max Temperature 49 °F 50 °F 66 °F (1995)
Min Temperature 30 °F 29 °F 5 °F (2006)
Degree Days  
Heating Degree Days 25 26  
Month to date heating degree days 492 513  
Since 1 July heating degree days 3403 3664  
Cooling Degree Days 0 0  
Month to date cooling degree days 0 0  
Year to date cooling degree days 0 0  
Moisture  
Dew Point 29 °F    
Average Humidity 69    
Maximum Humidity 92    
Minimum Humidity 45    
Precipitation  
Precipitation 0.00 in 0.03 in 0.42 in (1981)
Month to date precipitation T 0.60  
Year to date precipitation 0.36 1.82  
Snow  
Snow 0.00 in - - ()
Snow Depth 0.00 in    
Sea Level Pressure  
Sea Level Pressure 29.83 in    
Wind  
Wind Speed 2 mph (West)    
Max Wind Speed 10 mph    
Max Gust Speed 16 mph    
Visibility 10 miles    
Events      
T = Trace of Precipitation, MM = Missing Value Source: NWS Daily Summary

Daily Weather History Graph

Daily Weather History Graph

Search for Another Location

Airport or City:

Trip Planner

Search our weather history database for the weather conditions in past years. The results will help you decide how hot, cold, wet, or windy it might be!

Date:

Astronomy

Feb. 19, 2013 Rise Set
Actual Time 6:52 AM PST 5:28 PM PST
Civil Twilight 6:21 AM PST 5:59 PM PST
Nautical Twilight 5:46 AM PST 6:34 PM PST
Astronomical Twilight 5:12 AM PST 7:09 PM PST
Moon 11:53 AM PST (2/19) 2:39 AM PST (2/19)
Length of Visible Light 11h 37m
Length of Day
10h 36m
Waxing Gibbous, 68% of the Moon is Illuminated
Feb 19
Waxing Gibbous
Feb 25
Full
Mar 4
Last Quarter
Mar 11
New
Mar 19
First Quarter

Hourly Weather History & Observations

Time (PST) Temp. Windchill Dew Point Humidity Pressure Visibility Wind Dir Wind Speed Gust Speed Precip Events Conditions
12:53 AM 36.0 °F - 30.0 °F 79% 29.79 in 10.0 mi Calm Calm - N/A   Overcast
1:53 AM 34.0 °F 31.0 °F 30.9 °F 89% 29.78 in 10.0 mi NNW 3.5 mph - N/A   Overcast
2:53 AM 33.1 °F 30.0 °F 28.9 °F 85% 29.77 in 10.0 mi WNW 3.5 mph - N/A   Overcast
3:53 AM 33.1 °F - 28.9 °F 85% 29.78 in 10.0 mi Calm Calm - N/A   Overcast
4:53 AM 33.1 °F 30.0 °F 28.9 °F 85% 29.78 in 10.0 mi West 3.5 mph - N/A   Overcast
5:53 AM 32.0 °F 26.4 °F 28.9 °F 88% 29.78 in 10.0 mi WNW 5.8 mph - N/A   Overcast
6:53 AM 30.0 °F 24.1 °F 28.0 °F 92% 29.79 in 10.0 mi NW 5.8 mph - N/A   Overcast
7:53 AM 30.9 °F - 28.9 °F 92% 29.80 in 10.0 mi Calm Calm - N/A   Mostly Cloudy
8:53 AM 37.0 °F - 30.0 °F 76% 29.81 in 10.0 mi Calm Calm - N/A   Scattered Clouds
10:53 AM 43.0 °F 39.5 °F 30.9 °F 62% 29.81 in 10.0 mi NW 5.8 mph - N/A   Overcast
11:53 AM 44.1 °F 40.1 °F 30.9 °F 60% 29.82 in 10.0 mi West 6.9 mph - N/A   Overcast
12:53 PM 45.0 °F 42.6 °F 30.0 °F 56% 29.81 in 10.0 mi NW 4.6 mph - N/A   Mostly Cloudy
1:53 PM 46.0 °F - 28.0 °F 50% 29.81 in 10.0 mi Calm Calm - N/A   Mostly Cloudy
2:53 PM 48.0 °F - 28.0 °F 46% 29.82 in 10.0 mi WSW 4.6 mph - N/A   Mostly Cloudy
4:53 PM 46.9 °F - 27.0 °F 46% 29.83 in 10.0 mi Calm Calm - N/A   Mostly Cloudy
5:53 PM 43.0 °F 40.3 °F 28.0 °F 56% 29.85 in 10.0 mi SSE 4.6 mph - N/A   Clear
6:53 PM 39.0 °F 34.8 °F 30.0 °F 70% 29.88 in 10.0 mi SSE 5.8 mph - N/A   Clear
7:53 PM 37.9 °F 35.5 °F 30.9 °F 76% 29.89 in 10.0 mi SE 3.5 mph - N/A   Mostly Cloudy
8:53 PM 32.0 °F - 28.0 °F 85% 29.91 in 10.0 mi Calm Calm - N/A   Mostly Cloudy
9:53 PM 30.9 °F - 27.0 °F 85% 29.93 in 10.0 mi Calm Calm - N/A   Overcast
10:53 PM 33.1 °F - 28.9 °F 85% 29.95 in 10.0 mi Calm Calm - N/A   Overcast
11:53 PM 32.0 °F - 28.9 °F 88% 29.96 in 10.0 mi Calm Calm - N/A   Scattered Clouds